Flag for U.S.A. Weather past 2 weeks in Shreveport, Louisiana, U.S.A.

Now
81 °F

Sunny.


Feels Like: 86 °F
Forecast: 73 / 93 °F
Wind: 5 mph from Northwest

Location: Shreveport Regional Airport

Current Time: Jul 24, 2014 at 9:34:16 PM

Latest Report: Jul 24, 2014 at 8:56 PM


Visibility: 10 mi

Pressure: 29.96 "Hg

Humidity: 77%

Dew point: 73 °F

Location of ShreveportLocation

Historic Weather in Shreveport — Graph

°F

Shreveport temperature yesterday

Maximum temperature yesterday: 93 °F (at 2:56 PM)
Minimum temperature yesterday: 71 °F (at 10:56 PM)
Average temperature yesterday: 80 °F

Past Weeks' High & Low Weather Summary

 TemperatureHumidityPressure
High98 °F (Jul 13, 3:56 PM)97% (Jul 24, 5:56 AM)30.14 "Hg (Jul 24, 5:56 AM)
Low65 °F (Jul 21, 3:56 AM)33% (Jul 13, 3:56 PM)29.88 "Hg (Jul 14, 5:56 PM)
Average78 °F73%30.01 "Hg
* Reported Jul 9 7:56 PM — Jul 24 7:56 PM, Shreveport, Weather by CustomWeather, © 2014

Note: Actual official high and low records may vary slightly from our data, if they occured in-between our weather recording intervals... More about our weather records

Advertising

Shreveport weather history for previous 24 hours

 ConditionsComfort  
Time TempWeatherWind HumidityBarometerVisibility
7:56 PM
Jul 24
83 °FPassing clouds.6 mph70%29.95 "Hg10 mi
6:56 PM85 °FPassing clouds.3 mph63%29.95 "Hg10 mi
5:56 PM86 °FScattered clouds.5 mph61%29.96 "Hg10 mi
4:56 PM85 °FScattered clouds.7 mph63%29.98 "Hg10 mi
3:56 PM84 °FScattered clouds.3 mph63%30.00 "Hg10 mi
2:56 PM81 °FOvercast.5 mph69%30.02 "Hg10 mi
1:56 PM81 °FOvercast.3 mph69%30.02 "Hg10 mi
12:56 PM80 °FOvercast.6 mph71%30.04 "Hg10 mi
11:56 AM79 °FMore clouds than sun.6 mph74%30.04 "Hg10 mi
10:56 AM76 °FOvercast.3 mph80%30.05 "Hg10 mi
9:56 AM74 °FOvercast.5 mph85%30.05 "Hg10 mi
8:56 AM73 °FMostly cloudy.6 mph88%30.05 "Hg10 mi
7:56 AM71 °FLow clouds.5 mph90%30.03 "Hg10 mi
6:56 AM70 °FLow clouds.6 mph93%30.03 "Hg2 mi
5:56 AM70 °FFog.6 mph97%30.02 "Hg1 mi
4:56 AM71 °FLow clouds.6 mph93%30.00 "Hg7 mi
3:56 AM71 °FPassing clouds.6 mph93%30.00 "Hg10 mi
3:03 AM72 °FLow clouds.No wind94%29.99 "Hg9 mi
1:56 AM71 °FPassing clouds.3 mph90%29.97 "Hg10 mi
12:56 AM71 °FPassing clouds.5 mph90%29.95 "Hg10 mi
11:56 PM
Jul 23
71 °FPassing clouds.No wind90%29.95 "Hg10 mi
10:56 PM71 °FOvercast.No wind90%29.99 "Hg10 mi
9:56 PM73 °FMostly cloudy.7 mph84%30.03 "Hg10 mi
Weather by CustomWeather, © 2014

See weather overviewHow to use our weather pages